Hourly Data Report for May 23, 2012

All times are specified in Local Standard Time (LST). Add 1 hour to adjust for Daylight Saving Time where and when it is observed.

SAULT STE MARIE A
ONTARIO

46°29'06.000" N
84°30'35.000" W
192.00 m
6057591
71260
YAM

Download Data

Hourly Data (May 2012)
Hourly Data Report for May 23, 2012
Temp Definition
°C
Dew Point Temp Definition
°C
Rel Hum Definition
%
Wind Dir Definition
10's deg

Wind Spd Definition
km/h
Visibility Definition
km
Stn Press Definition
kPa
Hmdx Definition


Wind Chill Definition


Weather Definition


TIME
00:00 Legend Double Dagger 11.8 4.8 62 28 5 10.0 99.10     LegendNANA
01:00 Legend Double Dagger 10.2 6.0 75   0 10.0 99.09     Mostly Cloudy
02:00 Legend Double Dagger 9.7 7.2 84   0 10.0 99.07     LegendNANA
03:00 Legend Double Dagger 10.2 7.1 81 6 4 10.0 99.08     LegendNANA
04:00 Legend Double Dagger 10.3 7.7 84 10 5 10.0 99.07     Cloudy
05:00 Legend Double Dagger 9.8 7.6 86 10 7 10.0 99.06     LegendNANA
06:00 Legend Double Dagger 9.4 8.0 91   0 10.0 99.16     LegendNANA
07:00 Legend Double Dagger 12.2 9.1 81 15 5 10.0 99.11     Mostly Cloudy
08:00 Legend Double Dagger 15.3 9.1 66 8 8 10.0 99.12     LegendNANA
09:00 Legend Double Dagger 18.2 8.6 53 11 8 10.0 99.13     LegendNANA
10:00 Legend Double Dagger 21.0 7.4 41 14 13 10.0 99.09     Mostly Cloudy
11:00 Legend Double Dagger 22.7 8.2 39 17 13 10.0 99.05     LegendNANA
12:00 Legend Double Dagger 23.5 6.9 34 15 16 10.0 99.00     LegendNANA
13:00 Legend Double Dagger 23.9 7.3 34 15 17 10.0 98.91     Mainly Clear
14:00 Legend Double Dagger 23.7 8.0 36 16 22 10.0 98.85     LegendNANA
15:00 Legend Double Dagger 23.6 9.0 39 12 21 10.0 98.82     LegendNANA
16:00 Legend Double Dagger 23.3 11.2 46 13 19 10.0 98.77 25   Mostly Cloudy
17:00 Legend Double Dagger 21.5 11.1 51 12 18 10.0 98.74     LegendNANA
18:00 Legend Double Dagger 19.8 11.7 59 13 17 10.0 98.68     LegendNANA
19:00 Legend Double Dagger 18.6 11.3 62 12 14 10.0 98.68     Mostly Cloudy
20:00 Legend Double Dagger 17.6 11.9 69 10 12 10.0 98.68     LegendNANA
21:00 Legend Double Dagger 15.9 12.1 78 10 14 10.0 98.69     LegendNANA
22:00 Legend Double Dagger 14.9 12.3 84 9 17 10.0 98.70     Mainly Clear
23:00 Legend Double Dagger 13.8 12.2 90 10 15 10.0 98.66     LegendNANA

Notes on Data Quality.

Legend

  • E = Estimated
  • M = Missing
  • NA = Not Available
  • ‡ = Partner data that is not subject to review by the National Climate Archives
Date modified: